Terminal Aerodrome Forecast
Issued by NWS Topeka, KS

Home | Current Version | Previous Version | Text Only | Print | Product List | Glossary On
Versions: 1 2 3 4 5 6 7 8 9 10 11 12 13 14 15 16 17 18 19 20 21 22
000
FTUS43 KTOP 181500 AAB
TAFTOP
TAF AMD
KTOP 181519Z 1815/1912 17012KT 4SM -SHRA BR VCTS SCT035CB OVC080
     FM181700 14006KT 6SM -SHRA BR SCT015 OVC050
     FM181900 16009KT P6SM BKN050
     FM190900 09003KT 4SM -TSRA BKN040CB=

USA.gov is the U.S. government's official web portal to all federal, state and local government web resources and services.